Location: Unspecified
(0.0000°N, 0.0000°E)
Time: 17:04:00
(UTC+00:00)

Vanguard 1 - Pass Details

Date: 15 December 2018
Orbit: 654 x 3829 km, 34.2° (Epoch: 17 June)

Event Time Altitude Azimuth Distance (km) Brightness Sun altitude
Rises 21:29:18 0° 227° (SW) 7,599 15.3 -47.6°
Reaches altitude 10° 21:39:29 10° 204° (SSW) 5,913 14.4 -49.6°
Maximum altitude 21:46:56 14° 178° (S) 4,923 13.8 -51.1°
Drops below altitude 10° 21:52:55 10° 151° (SSE) 4,603 13.5 -52.2°
Enters shadow 21:54:51 - 142° (SE) 4,638 13.5 -52.6°
